LIC9562 BIKF-BGGH

Flight info

Callsign LIC9562
Flight time 2h 1m
Altitude 36000
Route SORIR SOPEN SABAG NAPIB INBAN GETDA
Aircraft B738/M-SDE2E3FGHIRWXY/LB1

Departure

Time 2026-04-26 09:05
Airport Keflavik International Airport (BIKF)

Arrival

Time 2026-04-26 11:07
Airport Nuuk International Airport (BGGH)
Time Latitude Longitude Altitude Speed Heading
2026-04-26 08:48 63.97478 -22.59027 161 ft 0 kts 116°
2026-04-26 08:59 63.97478 -22.59019 161 ft 1 kts 98°
2026-04-26 08:59 63.97489 -22.58987 161 ft 5 kts 34°
2026-04-26 09:00 63.97533 -22.59031 162 ft 11 kts 335°
2026-04-26 09:00 63.97633 -22.58988 164 ft 17 kts 18°
2026-04-26 09:00 63.97743 -22.58907 166 ft 16 kts 20°
2026-04-26 09:00 63.97845 -22.58813 168 ft 16 kts 22°
2026-04-26 09:01 63.97948 -22.58744 170 ft 15 kts
2026-04-26 09:01 63.98045 -22.58817 171 ft 14 kts 340°
2026-04-26 09:01 63.98130 -22.58893 173 ft 13 kts 337°
2026-04-26 09:01 63.98203 -22.59002 174 ft 13 kts 316°
2026-04-26 09:02 63.98277 -22.59096 175 ft 12 kts 337°
2026-04-26 09:02 63.98371 -22.59184 175 ft 17 kts 337°
2026-04-26 09:02 63.98473 -22.59277 174 ft 16 kts 345°
2026-04-26 09:02 63.98582 -22.59298 176 ft 15 kts 358°
2026-04-26 09:03 63.98688 -22.59301 174 ft 15 kts
2026-04-26 09:03 63.98786 -22.59335 173 ft 15 kts 344°
2026-04-26 09:03 63.98893 -22.59424 171 ft 18 kts 326°
2026-04-26 09:03 63.98990 -22.59635 170 ft 20 kts 314°
2026-04-26 09:04 63.99086 -22.59854 169 ft 19 kts 315°
2026-04-26 09:04 63.99161 -22.60047 169 ft 13 kts 296°
2026-04-26 09:04 63.99171 -22.60248 169 ft 13 kts 269°
2026-04-26 09:04 63.99165 -22.60448 170 ft 13 kts 247°
2026-04-26 09:05 63.99079 -22.60532 170 ft 27 kts 187°
2026-04-26 09:05 63.98573 -22.60544 163 ft 115 kts 180°
2026-04-26 09:05 63.97571 -22.60552 418 ft 163 kts 178°
2026-04-26 09:05 63.96382 -22.60598 1485 ft 165 kts 176°
2026-04-26 09:06 63.95248 -22.60610 2701 ft 171 kts 176°
2026-04-26 09:06 63.93968 -22.60626 3102 ft 198 kts 178°
2026-04-26 09:06 63.92550 -22.60665 3678 ft 209 kts 179°
2026-04-26 09:06 63.91108 -22.61237 4548 ft 214 kts 203°
2026-04-26 09:07 63.89936 -22.63399 5399 ft 226 kts 231°
2026-04-26 09:07 63.89327 -22.66884 5756 ft 258 kts 260°
2026-04-26 09:07 63.89251 -22.71063 6510 ft 269 kts 267°
2026-04-26 09:07 63.89278 -22.75359 7318 ft 275 kts 268°
2026-04-26 09:08 63.89532 -22.79714 8096 ft 286 kts 287°
2026-04-26 09:08 63.90463 -22.83753 8947 ft 292 kts 299°
2026-04-26 09:08 63.91561 -22.87698 9772 ft 297 kts 301°
2026-04-26 09:08 63.92688 -22.91640 10435 ft 307 kts 301°
2026-04-26 09:09 63.93899 -22.95885 10629 ft 333 kts 301°
2026-04-26 09:09 63.95196 -23.00465 10949 ft 352 kts 301°
2026-04-26 09:09 63.96532 -23.05213 11609 ft 358 kts 301°
2026-04-26 09:09 63.97879 -23.10027 12406 ft 361 kts 301°
2026-04-26 09:10 63.99233 -23.14898 13163 ft 365 kts 301°
2026-04-26 09:10 64.00595 -23.19822 13906 ft 369 kts 301°
2026-04-26 09:10 64.01960 -23.24773 14577 ft 373 kts 301°
2026-04-26 09:10 64.03342 -23.29803 15311 ft 374 kts 301°
2026-04-26 09:11 64.04730 -23.34871 15981 ft 378 kts 301°
2026-04-26 09:11 64.06131 -23.39995 16706 ft 380 kts 301°
2026-04-26 09:11 64.07522 -23.45099 17405 ft 383 kts 301°
2026-04-26 09:11 64.08934 -23.50293 18124 ft 385 kts 301°
2026-04-26 09:12 64.10356 -23.55533 18744 ft 387 kts 301°
2026-04-26 09:12 64.11789 -23.60825 19282 ft 392 kts 300°
2026-04-26 09:12 64.13229 -23.66153 19827 ft 395 kts 300°
2026-04-26 09:12 64.14658 -23.71459 20379 ft 398 kts 300°
2026-04-26 09:13 64.16118 -23.76888 20932 ft 401 kts 300°
2026-04-26 09:13 64.17588 -23.82370 21490 ft 404 kts 300°
2026-04-26 09:13 64.19069 -23.87905 22011 ft 408 kts 300°
2026-04-26 09:13 64.20546 -23.93442 22520 ft 411 kts 300°
2026-04-26 09:14 64.22043 -23.99066 23053 ft 414 kts 300°
2026-04-26 09:14 64.23549 -24.04737 23549 ft 417 kts 300°
2026-04-26 09:14 64.25068 -24.10469 23974 ft 420 kts 300°
2026-04-26 09:14 64.26596 -24.16253 24409 ft 422 kts 300°
2026-04-26 09:15 64.28106 -24.21981 24831 ft 424 kts 300°
2026-04-26 09:15 64.29637 -24.27809 25245 ft 427 kts 299°
2026-04-26 09:15 64.31179 -24.33692 25641 ft 429 kts 299°
2026-04-26 09:15 64.32728 -24.39618 26028 ft 432 kts 299°
2026-04-26 09:16 64.34280 -24.45569 26414 ft 434 kts 299°
2026-04-26 09:16 64.35841 -24.51574 26794 ft 436 kts 299°
2026-04-26 09:16 64.37406 -24.57603 27160 ft 439 kts 299°
2026-04-26 09:16 64.38978 -24.63675 27533 ft 441 kts 299°
2026-04-26 09:17 64.40502 -24.69752 27873 ft 442 kts 294°
2026-04-26 09:17 64.41645 -24.76345 28219 ft 442 kts 287°
2026-04-26 09:17 64.42592 -24.83124 28571 ft 443 kts 284°
2026-04-26 09:17 64.43488 -24.89987 28910 ft 445 kts 284°
2026-04-26 09:18 64.44381 -24.96877 29224 ft 448 kts 284°
2026-04-26 09:18 64.45294 -25.03813 29545 ft 450 kts 284°
2026-04-26 09:18 64.46223 -25.10747 29858 ft 452 kts 285°
2026-04-26 09:18 64.47169 -25.17715 30158 ft 454 kts 285°
2026-04-26 09:19 64.48121 -25.24679 30518 ft 453 kts 285°
2026-04-26 09:19 64.49073 -25.31631 30894 ft 452 kts 284°
2026-04-26 09:19 64.50023 -25.38591 31240 ft 451 kts 284°
2026-04-26 09:19 64.50968 -25.45535 31570 ft 452 kts 284°
2026-04-26 09:20 64.51913 -25.52521 31892 ft 452 kts 284°
2026-04-26 09:20 64.52838 -25.59388 32231 ft 451 kts 284°
2026-04-26 09:20 64.53772 -25.66359 32573 ft 451 kts 283°
2026-04-26 09:20 64.54701 -25.73321 32883 ft 451 kts 283°
2026-04-26 09:21 64.55631 -25.80322 33194 ft 451 kts 283°
2026-04-26 09:21 64.56554 -25.87299 33533 ft 450 kts 283°
2026-04-26 09:21 64.57474 -25.94277 33863 ft 450 kts 283°
2026-04-26 09:21 64.58378 -26.01172 34112 ft 451 kts 283°
2026-04-26 09:22 64.59291 -26.08164 34383 ft 450 kts 283°
2026-04-26 09:22 64.60199 -26.15139 34701 ft 448 kts 283°
2026-04-26 09:22 64.61100 -26.22093 35003 ft 447 kts 283°
2026-04-26 09:22 64.61993 -26.29021 35261 ft 446 kts 283°
2026-04-26 09:23 64.62884 -26.35965 35507 ft 446 kts 282°
2026-04-26 09:23 64.63761 -26.42826 35779 ft 445 kts 283°
2026-04-26 09:23 64.64642 -26.49748 35927 ft 447 kts 283°
2026-04-26 09:24 64.66419 -26.63815 35926 ft 455 kts 282°
2026-04-26 09:24 64.68203 -26.78031 35920 ft 459 kts 282°
2026-04-26 09:25 64.69991 -26.92425 35920 ft 460 kts 281°
2026-04-26 09:25 64.71505 -27.06881 35914 ft 458 kts 278°
2026-04-26 09:26 64.72854 -27.21455 35908 ft 457 kts 278°
2026-04-26 09:26 64.74193 -27.35992 35907 ft 456 kts 278°
2026-04-26 09:27 64.75534 -27.50412 35905 ft 455 kts 278°
2026-04-26 09:27 64.76881 -27.64911 35907 ft 454 kts 278°
2026-04-26 09:28 64.78210 -27.79363 35908 ft 453 kts 277°
2026-04-26 09:28 64.79522 -27.93802 35902 ft 452 kts 277°
2026-04-26 09:29 64.80813 -28.08184 35903 ft 451 kts 277°
2026-04-26 09:29 64.81879 -28.20189 35905 ft 451 kts 277°
2026-04-26 09:30 64.83146 -28.34611 35905 ft 451 kts 277°
2026-04-26 09:30 64.84401 -28.49085 35904 ft 450 kts 276°
2026-04-26 09:31 64.85640 -28.63527 35906 ft 450 kts 276°
2026-04-26 09:31 64.86854 -28.77870 35904 ft 449 kts 276°
2026-04-26 09:32 64.88066 -28.92355 35900 ft 449 kts 276°
2026-04-26 09:32 64.89250 -29.06700 35899 ft 449 kts 276°
2026-04-26 09:33 64.90430 -29.21161 35896 ft 448 kts 276°
2026-04-26 09:33 64.91594 -29.35622 35899 ft 448 kts 275°
2026-04-26 09:34 64.92735 -29.49973 35898 ft 448 kts 275°
2026-04-26 09:34 64.93867 -29.64408 35896 ft 447 kts 275°
2026-04-26 09:35 64.94986 -29.78858 35894 ft 447 kts 275°
2026-04-26 09:35 64.96090 -29.93310 35894 ft 447 kts 275°
2026-04-26 09:36 64.97180 -30.07775 35896 ft 446 kts 275°
2026-04-26 09:36 64.98247 -30.22124 35895 ft 446 kts 274°
2026-04-26 09:37 64.99307 -30.36584 35895 ft 445 kts 274°
2026-04-26 09:37 65.00352 -30.51050 35904 ft 445 kts 274°
2026-04-26 09:38 65.01377 -30.65424 35897 ft 445 kts 274°
2026-04-26 09:38 65.02393 -30.79897 35897 ft 445 kts 274°
2026-04-26 09:39 65.03388 -30.94260 35901 ft 445 kts 274°
2026-04-26 09:39 65.04376 -31.08743 35901 ft 445 kts 274°
2026-04-26 09:40 65.05344 -31.23155 35901 ft 444 kts 274°
2026-04-26 09:40 65.06303 -31.37636 35904 ft 444 kts 274°
2026-04-26 09:41 65.07249 -31.52151 35911 ft 444 kts 273°
2026-04-26 09:41 65.08175 -31.66596 35901 ft 445 kts 273°
2026-04-26 09:42 65.09095 -31.81159 35910 ft 444 kts 273°
2026-04-26 09:42 65.09990 -31.95545 35907 ft 443 kts 273°
2026-04-26 09:43 65.10879 -32.10083 35905 ft 443 kts 273°
2026-04-26 09:43 65.11745 -32.24488 35908 ft 442 kts 273°
2026-04-26 09:44 65.12601 -32.38969 35917 ft 442 kts 273°
2026-04-26 09:44 65.13444 -32.53479 35908 ft 442 kts 273°
2026-04-26 09:45 65.14267 -32.67884 35913 ft 442 kts 273°
2026-04-26 09:45 65.15082 -32.82397 35914 ft 442 kts 272°
2026-04-26 09:46 65.15883 -32.96925 35917 ft 443 kts 272°
2026-04-26 09:46 65.16671 -33.11481 35917 ft 443 kts 272°
2026-04-26 09:47 65.17441 -33.25974 35921 ft 443 kts 272°
2026-04-26 09:47 65.18202 -33.40563 35920 ft 443 kts 272°
2026-04-26 09:48 65.18945 -33.55087 35920 ft 443 kts 272°
2026-04-26 09:48 65.19678 -33.69705 35921 ft 444 kts 272°
2026-04-26 09:49 65.20393 -33.84251 35926 ft 444 kts 272°
2026-04-26 09:49 65.21097 -33.98870 35925 ft 444 kts 272°
2026-04-26 09:50 65.21783 -34.13416 35928 ft 443 kts 272°
2026-04-26 09:50 65.22459 -34.28037 35930 ft 443 kts 272°
2026-04-26 09:51 65.23121 -34.42691 35934 ft 443 kts 272°
2026-04-26 09:51 65.23763 -34.57212 35933 ft 442 kts 272°
2026-04-26 09:52 65.24395 -34.71841 35933 ft 442 kts 272°
2026-04-26 09:52 65.25311 -34.93680 35937 ft 442 kts 271°
2026-04-26 09:53 65.25906 -35.08265 35937 ft 441 kts 271°
2026-04-26 09:53 65.26491 -35.22908 35939 ft 441 kts 271°
2026-04-26 09:54 65.26902 -35.37422 35931 ft 439 kts 268°
2026-04-26 09:54 65.27052 -35.51993 35942 ft 438 kts 267°
2026-04-26 09:55 65.27168 -35.66574 35942 ft 438 kts 267°
2026-04-26 09:55 65.27294 -35.81070 35935 ft 438 kts 267°
2026-04-26 09:56 65.27421 -35.95576 35941 ft 438 kts 267°
2026-04-26 09:56 65.27540 -36.10172 35940 ft 437 kts 267°
2026-04-26 09:57 65.27644 -36.24630 35942 ft 437 kts 266°
2026-04-26 09:57 65.27734 -36.39173 35942 ft 437 kts 266°
2026-04-26 09:58 65.27810 -36.53605 35943 ft 436 kts 266°
2026-04-26 09:58 65.27871 -36.68134 35937 ft 436 kts 266°
2026-04-26 09:59 65.27919 -36.82614 35937 ft 435 kts 266°
2026-04-26 09:59 65.27953 -36.97056 35942 ft 435 kts 266°
2026-04-26 10:00 65.27972 -37.11421 35941 ft 434 kts 265°
2026-04-26 10:00 65.27978 -37.25846 35940 ft 433 kts 265°
2026-04-26 10:01 65.27971 -37.40271 35941 ft 433 kts 265°
2026-04-26 10:01 65.27949 -37.54569 35938 ft 433 kts 265°
2026-04-26 10:02 65.27914 -37.68948 35938 ft 432 kts 265°
2026-04-26 10:02 65.27865 -37.83331 35940 ft 432 kts 265°
2026-04-26 10:03 65.27803 -37.97593 35940 ft 432 kts 265°
2026-04-26 10:03 65.27727 -38.11949 35938 ft 432 kts 264°
2026-04-26 10:04 65.27637 -38.26340 35941 ft 431 kts 264°
2026-04-26 10:04 65.27535 -38.40567 35937 ft 431 kts 264°
2026-04-26 10:05 65.27418 -38.54916 35947 ft 431 kts 264°
2026-04-26 10:05 65.27288 -38.69252 35933 ft 431 kts 264°
2026-04-26 10:06 65.27144 -38.83526 35950 ft 431 kts 264°
2026-04-26 10:06 65.26986 -38.97891 35938 ft 432 kts 264°
2026-04-26 10:07 65.26816 -39.12169 35954 ft 432 kts 264°
2026-04-26 10:07 65.26630 -39.26545 35945 ft 433 kts 264°
2026-04-26 10:08 65.26431 -39.40925 35963 ft 433 kts 264°
2026-04-26 10:08 65.26219 -39.55242 35950 ft 434 kts 264°
2026-04-26 10:09 65.26031 -39.67259 35965 ft 434 kts 264°
2026-04-26 10:09 65.25750 -39.84109 35963 ft 435 kts 264°
2026-04-26 10:10 65.25497 -39.98467 35971 ft 435 kts 264°
2026-04-26 10:10 65.25227 -40.12926 35960 ft 436 kts 264°
2026-04-26 10:11 65.24944 -40.27388 35976 ft 436 kts 264°
2026-04-26 10:11 65.24646 -40.41858 35964 ft 435 kts 263°
2026-04-26 10:12 65.24338 -40.56184 35979 ft 435 kts 263°
2026-04-26 10:12 65.24013 -40.70609 35966 ft 435 kts 263°
2026-04-26 10:13 65.23674 -40.85080 35974 ft 435 kts 263°
2026-04-26 10:13 65.23324 -40.99414 35972 ft 435 kts 263°
2026-04-26 10:14 65.22958 -41.13838 35988 ft 435 kts 263°
2026-04-26 10:14 65.22643 -41.25837 35963 ft 436 kts 263°
2026-04-26 10:15 65.22251 -41.40267 35978 ft 435 kts 263°
2026-04-26 10:15 65.21849 -41.54577 35965 ft 434 kts 263°
2026-04-26 10:16 65.21432 -41.68934 35979 ft 434 kts 263°
2026-04-26 10:16 65.21000 -41.83314 35961 ft 434 kts 263°
2026-04-26 10:17 65.20555 -41.97671 35972 ft 434 kts 263°
2026-04-26 10:17 65.20099 -42.11926 35955 ft 434 kts 263°
2026-04-26 10:18 65.19626 -42.26292 35965 ft 434 kts 263°
2026-04-26 10:18 65.19140 -42.40657 35940 ft 434 kts 263°
2026-04-26 10:19 65.18644 -42.54912 35946 ft 434 kts 263°
2026-04-26 10:19 65.18130 -42.69248 35918 ft 435 kts 263°
2026-04-26 10:20 65.17601 -42.83617 35912 ft 435 kts 263°
2026-04-26 10:20 65.17060 -42.97971 35880 ft 435 kts 263°
2026-04-26 10:21 65.16507 -43.12239 35862 ft 435 kts 263°
2026-04-26 10:21 65.15938 -43.26599 35838 ft 436 kts 263°
2026-04-26 10:22 65.15355 -43.40946 35825 ft 436 kts 263°
2026-04-26 10:22 65.14761 -43.55244 35807 ft 436 kts 263°
2026-04-26 10:23 65.14150 -43.69639 35817 ft 436 kts 263°
2026-04-26 10:23 65.13620 -43.83947 35802 ft 437 kts 265°
2026-04-26 10:24 65.13227 -43.98400 35824 ft 437 kts 265°
2026-04-26 10:24 65.12832 -44.12734 35816 ft 437 kts 265°
2026-04-26 10:25 65.12402 -44.27175 35841 ft 436 kts 265°
2026-04-26 10:25 65.11951 -44.41466 35831 ft 436 kts 264°
2026-04-26 10:26 65.11480 -44.55826 35850 ft 435 kts 264°
2026-04-26 10:26 65.10998 -44.70144 35837 ft 434 kts 264°
2026-04-26 10:27 65.10505 -44.84352 35855 ft 433 kts 264°
2026-04-26 10:27 65.09998 -44.98609 35841 ft 433 kts 264°
2026-04-26 10:28 65.09477 -45.12851 35854 ft 432 kts 264°
2026-04-26 10:28 65.08947 -45.26974 35840 ft 431 kts 264°
2026-04-26 10:29 65.08402 -45.41145 35855 ft 431 kts 264°
2026-04-26 10:29 65.07843 -45.55312 35840 ft 430 kts 264°
2026-04-26 10:30 65.07271 -45.69462 35853 ft 430 kts 264°
2026-04-26 10:30 65.06691 -45.83508 35847 ft 430 kts 264°
2026-04-26 10:31 65.06093 -45.97635 35867 ft 430 kts 264°
2026-04-26 10:31 65.05486 -46.11665 35858 ft 430 kts 264°
2026-04-26 10:32 65.04862 -46.25768 35884 ft 430 kts 264°
2026-04-26 10:32 65.04227 -46.39811 35880 ft 430 kts 264°
2026-04-26 10:33 65.03575 -46.53942 35890 ft 430 kts 263°
2026-04-26 10:33 65.02911 -46.68039 35889 ft 430 kts 263°
2026-04-26 10:34 65.02237 -46.82045 35910 ft 430 kts 263°
2026-04-26 10:34 65.01547 -46.96121 35908 ft 430 kts 263°
2026-04-26 10:35 65.00846 -47.10136 35929 ft 430 kts 263°
2026-04-26 10:35 65.00130 -47.24186 35922 ft 430 kts 263°
2026-04-26 10:36 64.99404 -47.38156 35938 ft 429 kts 263°
2026-04-26 10:36 64.98661 -47.52203 35931 ft 429 kts 263°
2026-04-26 10:37 64.97907 -47.66201 35950 ft 429 kts 263°
2026-04-26 10:37 64.97146 -47.80078 35937 ft 429 kts 263°
2026-04-26 10:38 64.96367 -47.94030 35954 ft 428 kts 263°
2026-04-26 10:38 64.95575 -48.07988 35938 ft 427 kts 263°
2026-04-26 10:39 64.94784 -48.21690 35949 ft 420 kts 262°
2026-04-26 10:39 64.93981 -48.35371 35795 ft 420 kts 262°
2026-04-26 10:40 64.93576 -48.42198 35474 ft 416 kts 262°
2026-04-26 10:40 64.93177 -48.48859 35021 ft 411 kts 263°
2026-04-26 10:40 64.92775 -48.55509 34606 ft 407 kts 263°
2026-04-26 10:40 64.92375 -48.62094 34173 ft 403 kts 263°
2026-04-26 10:41 64.91976 -48.68603 33701 ft 399 kts 263°
2026-04-26 10:41 64.91579 -48.75046 33230 ft 395 kts 263°
2026-04-26 10:41 64.91181 -48.81445 32801 ft 391 kts 263°
2026-04-26 10:41 64.90792 -48.87665 32344 ft 387 kts 262°
2026-04-26 10:42 64.90398 -48.93911 31953 ft 383 kts 262°
2026-04-26 10:42 64.90006 -49.00100 31526 ft 380 kts 262°
2026-04-26 10:42 64.89614 -49.06234 31117 ft 376 kts 262°
2026-04-26 10:42 64.89224 -49.12304 30686 ft 374 kts 262°
2026-04-26 10:43 64.88834 -49.18326 30296 ft 371 kts 262°
2026-04-26 10:43 64.88444 -49.24315 29873 ft 368 kts 262°
2026-04-26 10:43 64.88059 -49.30179 29431 ft 365 kts 262°
2026-04-26 10:43 64.87672 -49.36050 28988 ft 360 kts 262°
2026-04-26 10:44 64.87286 -49.41866 28597 ft 356 kts 262°
2026-04-26 10:44 64.86903 -49.47604 28200 ft 352 kts 262°
2026-04-26 10:44 64.86521 -49.53285 27790 ft 349 kts 262°
2026-04-26 10:44 64.86147 -49.58827 27374 ft 346 kts 262°
2026-04-26 10:45 64.85768 -49.64402 26989 ft 343 kts 262°
2026-04-26 10:45 64.85390 -49.69934 26587 ft 341 kts 262°
2026-04-26 10:45 64.85014 -49.75415 26187 ft 339 kts 262°
2026-04-26 10:45 64.84643 -49.80807 25799 ft 336 kts 262°
2026-04-26 10:46 64.84268 -49.86218 25418 ft 334 kts 262°
2026-04-26 10:46 64.83891 -49.91596 25039 ft 332 kts 261°
2026-04-26 10:46 64.83506 -49.96942 24652 ft 331 kts 259°
2026-04-26 10:46 64.82883 -50.02129 24282 ft 330 kts 250°
2026-04-26 10:47 64.81954 -50.07041 23952 ft 327 kts 247°
2026-04-26 10:47 64.80978 -50.11872 23591 ft 326 kts 246°
2026-04-26 10:47 64.79999 -50.16662 23148 ft 325 kts 246°
2026-04-26 10:47 64.79037 -50.21367 22750 ft 322 kts 247°
2026-04-26 10:48 64.78075 -50.26087 22395 ft 319 kts 247°
2026-04-26 10:48 64.77120 -50.30778 22022 ft 316 kts 247°
2026-04-26 10:48 64.76177 -50.35418 21642 ft 314 kts 247°
2026-04-26 10:48 64.75249 -50.39980 21281 ft 312 kts 247°
2026-04-26 10:49 64.74317 -50.44554 20924 ft 310 kts 247°
2026-04-26 10:49 64.73390 -50.49103 20566 ft 308 kts 247°
2026-04-26 10:49 64.72467 -50.53620 20210 ft 306 kts 247°
2026-04-26 10:49 64.71551 -50.58094 19834 ft 304 kts 247°
2026-04-26 10:50 64.70648 -50.62499 19504 ft 302 kts 247°
2026-04-26 10:50 64.70024 -50.65410 19232 ft 303 kts 242°
2026-04-26 10:50 64.68130 -50.70408 18683 ft 311 kts 224°
2026-04-26 10:50 64.66331 -50.73293 18304 ft 315 kts 216°
2026-04-26 10:51 64.64417 -50.75801 17898 ft 315 kts 214°
2026-04-26 10:51 64.60609 -50.80607 17151 ft 310 kts 213°
2026-04-26 10:51 64.58715 -50.82996 16767 ft 308 kts 213°
2026-04-26 10:52 64.56837 -50.85373 16441 ft 305 kts 213°
2026-04-26 10:52 64.54972 -50.87740 16082 ft 304 kts 213°
2026-04-26 10:52 64.53115 -50.90103 15739 ft 303 kts 213°
2026-04-26 10:52 64.51283 -50.92434 15356 ft 302 kts 213°
2026-04-26 10:53 64.49439 -50.94779 15027 ft 301 kts 213°
2026-04-26 10:53 64.47601 -50.97116 14690 ft 300 kts 213°
2026-04-26 10:53 64.45763 -50.99450 14328 ft 299 kts 213°
2026-04-26 10:54 64.42136 -51.04045 13647 ft 298 kts 212°
2026-04-26 10:54 64.40314 -51.06351 13260 ft 298 kts 212°
2026-04-26 10:54 64.38497 -51.08645 12881 ft 297 kts 212°
2026-04-26 10:54 64.36688 -51.10924 12530 ft 295 kts 212°
2026-04-26 10:55 64.34884 -51.13195 12184 ft 294 kts 212°
2026-04-26 10:55 64.33086 -51.15455 11835 ft 294 kts 212°
2026-04-26 10:55 64.31308 -51.17689 11493 ft 295 kts 211°
2026-04-26 10:55 64.30092 -51.19213 11244 ft 295 kts 211°
2026-04-26 10:56 64.27697 -51.22210 10776 ft 295 kts 211°
2026-04-26 10:56 64.25888 -51.24470 10431 ft 295 kts 211°
2026-04-26 10:56 64.24101 -51.26698 10241 ft 289 kts 211°
2026-04-26 10:56 64.22351 -51.28873 10087 ft 281 kts 211°
2026-04-26 10:57 64.20655 -51.30982 9962 ft 273 kts 211°
2026-04-26 10:57 64.18995 -51.33044 9655 ft 268 kts 211°
2026-04-26 10:57 64.17366 -51.35064 9359 ft 264 kts 211°
2026-04-26 10:57 64.15765 -51.37049 9055 ft 260 kts 211°
2026-04-26 10:58 64.14186 -51.39005 8787 ft 255 kts 211°
2026-04-26 10:58 64.12654 -51.40898 8508 ft 252 kts 211°
2026-04-26 10:58 64.11108 -51.42807 8255 ft 254 kts 211°
2026-04-26 10:58 64.09525 -51.44763 7975 ft 262 kts 210°
2026-04-26 10:59 64.07899 -51.46767 7701 ft 268 kts 210°
2026-04-26 10:59 64.06254 -51.48790 7400 ft 268 kts 210°
2026-04-26 10:59 64.04629 -51.50787 7128 ft 267 kts 210°
2026-04-26 10:59 64.02985 -51.52800 6852 ft 267 kts 210°
2026-04-26 11:00 64.01345 -51.54806 6570 ft 267 kts 210°
2026-04-26 11:00 63.99722 -51.56794 6298 ft 267 kts 211°
2026-04-26 11:00 63.98375 -51.59491 6008 ft 250 kts 240°
2026-04-26 11:00 63.97798 -51.63075 5600 ft 237 kts 265°
2026-04-26 11:01 63.97857 -51.66719 5184 ft 227 kts 285°
2026-04-26 11:01 63.98130 -51.69006 4913 ft 223 kts 289°
2026-04-26 11:01 63.98603 -51.72335 4498 ft 219 kts 291°
2026-04-26 11:01 63.99229 -51.76655 3961 ft 213 kts 293°
2026-04-26 11:02 63.99699 -51.78580 3686 ft 207 kts 314°
2026-04-26 11:02 64.00873 -51.80222 3440 ft 193 kts 346°
2026-04-26 11:02 64.02155 -51.80078 3259 ft 181 kts 15°
2026-04-26 11:02 64.03323 -51.79311 3094 ft 170 kts 14°
2026-04-26 11:03 64.04430 -51.78569 2944 ft 162 kts 15°
2026-04-26 11:03 64.05483 -51.77820 2780 ft 154 kts 15°
2026-04-26 11:03 64.06471 -51.77104 2697 ft 146 kts 16°
2026-04-26 11:03 64.07408 -51.76421 2522 ft 136 kts 15°
2026-04-26 11:04 64.08281 -51.75786 2311 ft 130 kts 16°
2026-04-26 11:04 64.09144 -51.75159 2094 ft 129 kts 15°
2026-04-26 11:04 64.09989 -51.74545 1905 ft 127 kts 15°
2026-04-26 11:04 64.10834 -51.73931 1729 ft 127 kts 15°
2026-04-26 11:05 64.11679 -51.73316 1531 ft 127 kts 15°
2026-04-26 11:05 64.12523 -51.72702 1334 ft 127 kts 15°
2026-04-26 11:05 64.13365 -51.72089 1150 ft 127 kts 15°
2026-04-26 11:05 64.14194 -51.71485 1007 ft 121 kts 14°
2026-04-26 11:06 64.14976 -51.70904 875 ft 116 kts 14°
2026-04-26 11:06 64.15718 -51.70288 749 ft 110 kts 12°
2026-04-26 11:06 64.16416 -51.69760 634 ft 105 kts 11°
2026-04-26 11:06 64.17115 -51.69282 477 ft 105 kts
2026-04-26 11:07 64.17809 -51.68836 335 ft 105 kts 16°
2026-04-26 11:07 64.18481 -51.68368 277 ft 89 kts 16°
2026-04-26 11:07 64.18853 -51.68105 277 ft 19 kts 18°
2026-04-26 11:07 64.18938 -51.67989 280 ft 13 kts 61°
2026-04-26 11:08 64.19000 -51.67887 283 ft 11 kts 10°
2026-04-26 11:08 64.19074 -51.67831 281 ft 11 kts 38°
2026-04-26 11:08 64.19076 -51.67662 280 ft 12 kts 105°
2026-04-26 11:08 64.19107 -51.67485 275 ft 9 kts 24°
2026-04-26 11:09 64.19131 -51.67471 276 ft 0 kts 15°